Tracking 30505 objects as of 23-May-2025
HD Live streaming from Space Station
objects crossing your sky now

STARLINK-34043

Track STARLINK-34043 now!
10-day predictions
STARLINK-34043 is classified as:


NORAD ID: 63823
Int'l Code: 2025-092V
Perigee: 368.3 km
Apogee: 370.8 km
Inclination: 43.0 °
Period: 91.8 minutes
Semi major axis: 6740 km
RCS: Unknown
Launch date: May 4, 2025
Source: United States (US)
Launch site: AIR FORCE EASTERN TEST RANGE (AFETR)
Your satellite tracking list
Your tracking list is empty




NASA's NSSDC Master Catalog

Two Line Element Set (TLE):
1 63823U 25092V   25143.16668981  .00114470  00000-0  96239-3 0  9999
2 63823  43.0007  17.6127 0001864 268.4253  63.2525 15.68776527  4125
Source of the keplerian elements: AFSPC